H1 CPF 2 NER 2024 11 16 9 321 01 glonass139 H2 1808601 9139 43687 2024 11 16 0 0 0 2024 11 19 23 45 0 900 1 1 0 0 0 1 H9 10 0 60630 0.00000 0 -14616420.267 14314126.199 -15224847.024 10 0 60630 900.00000 0 -16130983.174 15144205.657 -12683409.495 10 0 60630 1800.00000 0 -17295430.236 15920790.567 -9895460.201 10 0 60630 2700.00000 0 -18103025.600 16585700.268 -6915219.486 10 0 60630 3600.00000 0 -18559991.832 17082422.879 -3800626.398 10 0 60630 4500.00000 0 -18685026.273 17358641.544 -612208.234 10 0 60630 5400.00000 0 -18508306.186 17368598.441 2588099.048 10 0 60630 6300.00000 0 -18070026.101 17075196.425 5738156.150 10 0 60630 7200.00000 0 -17418530.334 16451749.378 8776827.565 10 0 60630 8100.00000 0 -16608120.562 15483307.281 11645166.840 10 0 60630 9000.00000 0 -15696631.694 14167500.030 14287556.896 10 0 60630 9900.00000 0 -14742878.716 12514864.302 16652783.424 10 0 60630 10800.00000 0 -13804082.179 10548639.472 18695021.036 10 0 60630 11700.00000 0 -12933380.487 8304040.636 20374713.746 10 0 60630 12600.00000 0 -12177533.131 5827038.518 21659333.552 10 0 60630 13500.00000 0 -11574910.692 3172696.272 22524003.396 10 0 60630 14400.00000 0 -11153855.271 403131.323 22951973.341 10 0 60630 15300.00000 0 -10931479.410 -2414814.276 22934941.464 10 0 60630 16200.00000 0 -10912953.346 -5212099.661 22473213.796 10 0 60630 17100.00000 0 -11091310.152 -7920103.879 21575700.368 10 0 60630 18000.00000 0 -11447776.897 -10473230.286 20259747.285 10 0 60630 18900.00000 0 -11952618.186 -12811389.963 18550807.587 10 0 60630 19800.00000 0 -12566457.131 -14882262.223 16481956.472 10 0 60630 20700.00000 0 -13242018.899 -16643239.178 14093259.331 10 0 60630 21600.00000 0 -13926224.155 -18062974.110 11431003.798 10 0 60630 22500.00000 0 -14562544.864 -19122469.565 8546809.706 10 0 60630 23400.00000 0 -15093523.528 -19815659.945 5496633.414 10 0 60630 24300.00000 0 -15463349.689 -20149464.347 2339685.261 10 0 60630 25200.00000 0 -15620384.638 -20143307.493 -862719.127 10 0 60630 26100.00000 0 -15519527.100 -19828128.977 -4048351.255 10 0 60630 27000.00000 0 -15124318.947 -19244922.643 -7155282.415 10 0 60630 27900.00000 0 -14408700.779 -18442867.920 -10123092.460 10 0 60630 28800.00000 0 -13358341.786 -17477132.257 -12894050.468 10 0 60630 29700.00000 0 -11971486.270 -16406437.859 -15414243.627 10 0 60630 30600.00000 0 -10259279.549 -15290495.912 -17634631.746 10 0 60630 31500.00000 0 -8245558.074 -14187417.107 -19512006.297 10 0 60630 32400.00000 0 -5966111.145 -13151208.164 -21009835.004 10 0 60630 33300.00000 0 -3467443.953 -12229460.263 -22098975.363 10 0 60630 34200.00000 0 -805092.685 -11461327.074 -22758243.158 10 0 60630 35100.00000 0 1958438.783 -10875877.582 -22974825.028 10 0 60630 36000.00000 0 4756035.252 -10490892.996 -22744527.210 10 0 60630 36900.00000 0 7518521.936 -10312158.119 -22071855.758 10 0 60630 37800.00000 0 10177305.807 -10333276.637 -20969926.857 10 0 60630 38700.00000 0 12666996.993 -10536017.598 -19460209.032 10 0 60630 39600.00000 0 14927901.524 -10891177.915 -17572102.360 10 0 60630 40500.00000 0 16908282.041 -11359923.923 -15342362.905 10 0 60630 41400.00000 0 18566292.883 -11895554.737 -12814383.636 10 0 60630 42300.00000 0 19871509.466 -12445612.349 -10037345.978 10 0 60630 43200.00000 0 20805989.023 -12954248.666 -7065258.696 10 0 60630 44100.00000 0 21364819.419 -13364748.869 -3955903.163 10 0 60630 45000.00000 0 21556134.302 -13622103.829 -769705.942 10 0 60630 45900.00000 0 21400595.354 -13675522.318 2431438.876 10 0 60630 46800.00000 0 20930364.830 -13480776.397 5585374.235 10 0 60630 47700.00000 0 20187612.917 -13002280.518 8630887.695 10 0 60630 48600.00000 0 19222623.965 -12214816.283 11508898.310 10 0 60630 49500.00000 0 18091582.188 -11104829.881 14163599.698 10 0 60630 50400.00000 0 16854130.678 -9671247.282 16543537.267 10 0 60630 51300.00000 0 15570806.618 -7925772.589 18602599.164 10 0 60630 52200.00000 0 14300460.404 -5892656.536 20300902.412 10 0 60630 53100.00000 0 13097766.596 -3607944.139 21605557.905 10 0 60630 54000.00000 0 12010930.439 -1118232.072 22491300.358 10 0 60630 54900.00000 0 11079685.181 1521013.593 22940971.951 10 0 60630 55800.00000 0 10333663.203 4247510.524 22945851.026 10 0 60630 56700.00000 0 9791208.242 6994500.279 22505819.999 10 0 60630 57600.00000 0 9458677.736 9693279.845 21629369.453 10 0 60630 58500.00000 0 9330264.006 12275820.968 20333438.171 10 0 60630 59400.00000 0 9388341.518 14677369.954 18643091.745 10 0 60630 60300.00000 0 9604325.679 16838921.228 16591045.200 10 0 60630 61200.00000 0 9940007.316 18709462.737 14217037.947 10 0 60630 62100.00000 0 10349307.115 20247900.443 11567072.160 10 0 60630 63000.00000 0 10780376.477 21424582.093 8692528.305 10 0 60630 63900.00000 0 11177956.563 22222356.758 5649174.225 10 0 60630 64800.00000 0 11485896.024 22637125.834 2496086.381 10 0 60630 65700.00000 0 11649720.888 22677862.269 -705496.061 10 0 60630 66600.00000 0 11619147.458 22366097.093 -3893361.998 10 0 60630 67500.00000 0 11350431.158 21734894.757 -7005540.545 10 0 60630 68400.00000 0 10808450.853 20827360.419 -9981510.506 10 0 60630 69300.00000 0 9968439.218 19694742.183 -12763382.918 10 0 60630 70200.00000 0 8817284.530 18394208.555 -15297032.987 10 0 60630 71100.00000 0 7354347.361 16986395.084 -17533158.742 10 0 60630 72000.00000 0 5591756.171 15532823.985 -19428245.240 10 0 60630 72900.00000 0 3554167.833 14093305.800 -20945415.199 10 0 60630 73800.00000 0 1278001.702 12723432.731 -22055149.316 10 0 60630 74700.00000 0 -1189821.879 11472269.322 -22735862.207 10 0 60630 75600.00000 0 -3793586.953 10380337.535 -22974322.832 10 0 60630 76500.00000 0 -6470860.828 9477980.731 -22765911.397 10 0 60630 77400.00000 0 -9154860.433 8784174.904 -22114707.888 10 0 60630 78300.00000 0 -11777008.020 8305836.519 -21033410.673 10 0 60630 79200.00000 0 -14269570.209 8037655.331 -19543086.850 10 0 60630 80100.00000 0 -16568270.744 7962458.338 -17672759.292 10 0 60630 81000.00000 0 -18614768.432 8052088.588 -15458838.454 10 0 60630 81900.00000 0 -20358897.346 8268760.854 -12944410.056 10 0 60630 82800.00000 0 -21760576.210 8566835.976 -10178392.646 10 0 60630 83700.00000 0 -22791307.839 8894938.006 -7214581.634 10 0 60630 84600.00000 0 -23435206.659 9198323.820 -4110598.702 10 0 60630 85500.00000 0 -23689512.222 9421404.162 -926767.470 10 0 60631 0.00000 0 -23564568.302 9510308.785 2275061.962 10 0 60631 900.00000 0 -23083269.511 9415386.618 5432717.958 10 0 60631 1800.00000 0 -22280000.142 9093534.632 8484913.639 10 0 60631 2700.00000 0 -21199110.751 8510256.822 11372436.487 10 0 60631 3600.00000 0 -19892997.530 7641365.872 14039293.846 10 0 60631 4500.00000 0 -18419865.872 6474255.570 16433793.886 10 0 60631 5400.00000 0 -16841272.408 5008690.070 18509541.273 10 0 60631 6300.00000 0 -15219548.635 3257076.376 20226328.870 10 0 60631 7200.00000 0 -13615213.804 1244208.019 21550909.033 10 0 60631 8100.00000 0 -12084484.736 -993510.184 22457630.494 10 0 60631 9000.00000 0 -10676985.847 -3409325.007 22928929.415 10 0 60631 9900.00000 0 -9433754.081 -5947833.940 22955665.829 10 0 60631 10800.00000 0 -8385621.066 -8547051.304 22537299.529 10 0 60631 11700.00000 0 -7552039.038 -11140757.012 21681902.181 10 0 60631 12600.00000 0 -6940398.795 -13661031.880 20406005.325 10 0 60631 13500.00000 0 -6545867.535 -16040875.639 18734286.733 10 0 60631 14400.00000 0 -6351752.945 -18216800.089 16699100.447 10 0 60631 15300.00000 0 -6330378.128 -20131290.528 14339858.689 10 0 60631 16200.00000 0 -6444430.581 -21735033.679 11702276.572 10 0 60631 17100.00000 0 -6648728.593 -22988819.574 8837493.284 10 0 60631 18000.00000 0 -6892330.743 -23865038.073 5801085.947 10 0 60631 18900.00000 0 -7120899.502 -24348707.240 2651994.727 10 0 60631 19800.00000 0 -7279218.910 -24437990.240 -548620.300 10 0 60631 20700.00000 0 -7313759.451 -24144178.630 -3738568.216 10 0 60631 21600.00000 0 -7175180.922 -23491142.461 -6855838.911 10 0 60631 22500.00000 0 -6820666.378 -22514270.010 -9839813.211 10 0 60631 23400.00000 0 -6215987.234 -21258941.657 -12632447.284 10 0 60631 24300.00000 0 -5337210.754 -19778602.135 -15179407.555 10 0 60631 25200.00000 0 -4171976.293 -18132512.437 -17431133.427 10 0 60631 26100.00000 0 -2720284.875 -16383276.202 -19343806.543 10 0 60631 27000.00000 0 -994767.264 -14594244.854 -20880207.366 10 0 60631 27900.00000 0 979582.215 -12826910.737 -22010442.212 10 0 60631 28800.00000 0 3166196.293 -11138397.873 -22712526.532 10 0 60631 29700.00000 0 5518217.879 -9579155.572 -22972813.160 10 0 60631 30600.00000 0 7980223.033 -8190951.430 -22786257.371 10 0 60631 31500.00000 0 10490312.574 -7005247.397 -22156513.730 10 0 60631 32400.00000 0 12982485.671 -6042026.387 -21095862.995 10 0 60631 33300.00000 0 15389196.865 -5309117.726 -19624970.631 10 0 60631 34200.00000 0 17643990.156 -4802048.754 -17772481.663 10 0 60631 35100.00000 0 19684100.554 -4504427.605 -15574459.833 10 0 60631 36000.00000 0 21452914.726 -4388839.791 -13073682.028 10 0 60631 36900.00000 0 22902188.195 -4418219.568 -10318801.842 10 0 60631 37800.00000 0 23993926.740 -4547636.926 -7363398.756 10 0 60631 38700.00000 0 24701853.736 -4726423.592 -4264931.748 10 0 60631 39600.00000 0 25012402.578 -4900547.075 -1083618.115 10 0 60631 40500.00000 0 24925193.355 -5015131.422 2118740.218 10 0 60631 41400.00000 0 24452974.667 -5017017.222 5279959.607 10 0 60631 42300.00000 0 23621034.024 -4857251.976 8338682.990 10 0 60631 43200.00000 0 22466102.515 -4493404.990 11235569.812 10 0 60631 44100.00000 0 21034800.614 -3891608.688 13914444.401 10 0 60631 45000.00000 0 19381691.006 -3028239.866 16323380.627 10 0 60631 45900.00000 0 17567020.493 -1891169.786 18415702.220 10 0 60631 46800.00000 0 15654245.639 -480530.135 20150880.029 10 0 60631 47700.00000 0 13707445.473 1191037.768 21495309.617 10 0 60631 48600.00000 0 11788728.793 3098661.689 22422955.056 10 0 60631 49500.00000 0 9955743.475 5206034.392 22915847.385 10 0 60631 50400.00000 0 8259390.671 7466694.659 22964428.808 10 0 60631 51300.00000 0 6741838.028 9825741.376 22567736.531 10 0 60631 52200.00000 0 5434913.591 12221910.827 21733422.917 10 0 60631 53100.00000 0 4358946.289 14589932.244 20477611.457 10 0 60631 54000.00000 0 3522100.447 16863065.108 18824590.916 10 0 60631 54900.00000 0 2920231.386 18975713.959 16806352.825 10 0 60631 55800.00000 0 2537267.628 20866012.848 14461980.380 10 0 60631 56700.00000 0 2346103.342 22478272.501 11836899.556 10 0 60631 57600.00000 0 2309963.358 23765188.480 8982005.953 10 0 60631 58500.00000 0 2384183.204 24689718.087 5952683.498 10 0 60631 59400.00000 0 2518328.993 25226547.288 2807733.432 10 0 60631 60300.00000 0 2658567.436 25363085.693 -391765.970 10 0 60631 61200.00000 0 2750185.420 25099947.291 -3583646.722 10 0 60631 62100.00000 0 2740151.921 24450896.119 -6705862.201 10 0 60631 63000.00000 0 2579613.006 23442258.611 -9697697.874 10 0 60631 63900.00000 0 2226213.210 22111826.877 -12500957.497 10 0 60631 64800.00000 0 1646143.845 20507298.763 -15061100.984 10 0 60631 65700.00000 0 815830.210 18684320.116 -17328311.180 10 0 60631 66600.00000 0 -276815.022 16704211.552 -19258468.181 10 0 60631 67500.00000 0 -1631626.577 14631475.260 -20814011.876 10 0 60631 68400.00000 0 -3235943.238 12531186.551 -21964675.702 10 0 60631 69300.00000 0 -5064897.922 10466379.588 -22688077.253 10 0 60631 70200.00000 0 -7082230.268 8495536.746 -22970154.332 10 0 60631 71100.00000 0 -9241588.720 6670286.491 -22805438.112 10 0 60631 72000.00000 0 -11488268.470 5033405.691 -22197158.232 10 0 60631 72900.00000 0 -13761313.270 3617209.303 -21157177.974 10 0 60631 73800.00000 0 -15995893.797 2442393.931 -19705760.875 10 0 60631 74700.00000 0 -18125863.509 1517382.605 -17871173.398 10 0 60631 75600.00000 0 -20086385.438 838196.932 -15689131.472 10 0 60631 76500.00000 0 -21816520.255 388860.570 -13202101.700 10 0 60631 77400.00000 0 -23261667.457 142315.553 -10458470.978 10 0 60631 78300.00000 0 -24375757.624 61811.343 -7511600.890 10 0 60631 79200.00000 0 -25123104.139 102706.591 -4418785.550 10 0 60631 80100.00000 0 -25479837.018 214606.151 -1240133.613 10 0 60631 81000.00000 0 -25434859.197 343741.828 1962603.360 10 0 60631 81900.00000 0 -24990285.683 435495.170 5127232.909 10 0 60631 82800.00000 0 -24161347.851 436954.760 8192330.249 10 0 60631 83700.00000 0 -22975767.602 299399.273 11098429.623 10 0 60631 84600.00000 0 -21472628.337 -19399.108 13789175.229 10 0 60631 85500.00000 0 -19700790.659 -553148.460 16212409.482 10 0 60632 0.00000 0 -17716919.708 -1325373.655 18321177.731 10 0 60632 900.00000 0 -15583205.673 -2348186.403 20074631.707 10 0 60632 1800.00000 0 -13364875.209 -3621539.757 21438812.181 10 0 60632 2700.00000 0 -11127593.594 -5133000.177 22387300.421 10 0 60632 3600.00000 0 -8934867.672 -6858046.462 22901723.793 10 0 60632 4500.00000 0 -6845555.721 -8760884.365 22972107.705 10 0 60632 5400.00000 0 -4911586.841 -10795743.961 22597067.403 10 0 60632 6300.00000 0 -3175983.497 -12908607.050 21783836.176 10 0 60632 7200.00000 0 -1671268.327 -15039293.995 20548129.332 10 0 60632 8100.00000 0 -418320.412 -17123824.508 18913846.133 10 0 60632 9000.00000 0 574272.256 -19096955.325 16912614.768 10 0 60632 9900.00000 0 1310337.838 -20894790.068 14583188.249 10 0 60632 10800.00000 0 1805718.589 -22457353.182 11970701.943 10 0 60632 11700.00000 0 2087358.976 -23731020.905 9125806.112 10 0 60632 12600.00000 0 2191922.571 -24670707.649 6103689.477 10 0 60632 13500.00000 0 2163996.216 -25241715.996 2963012.130 10 0 60632 14400.00000 0 2053957.487 -25421172.178 -235231.860 10 0 60632 15300.00000 0 1915595.943 -25198986.052 -3428900.011 10 0 60632 16200.00000 0 1803589.259 -24578294.392 -6555911.888 10 0 60632 17100.00000 0 1770941.839 -23575368.020 -9555460.420 10 0 60632 18000.00000 0 1866495.190 -22218985.906 -12369199.862 10 0 60632 18900.00000 0 2132616.589 -20549301.943 -14942386.563 10 0 60632 19800.00000 0 2603165.006 -18616251.536 -17224949.719 10 0 60632 20700.00000 0 3301821.588 -16477564.645 -19172470.675 10 0 60632 21600.00000 0 4240856.523 -14196468.485 -20747051.322 10 0 60632 22500.00000 0 5420385.610 -11839176.084 -21918054.489 10 0 60632 23400.00000 0 6828149.068 -9472265.829 -22662701.812 10 0 60632 24300.00000 0 8439823.052 -7160061.479 -22966517.549 10 0 60632 25200.00000 0 10219851.795 -4962121.942 -22823609.820 10 0 60632 26100.00000 0 12122766.336 -2930945.319 -22236783.970 10 0 60632 27000.00000 0 14094935.228 -1109982.493 -21217486.015 10 0 60632 27900.00000 0 16076674.472 467957.558 -19785577.382 10 0 60632 28800.00000 0 18004628.610 1781845.138 -17968945.393 10 0 60632 29700.00000 0 19814323.535 2823063.558 -15802957.162 10 0 60632 30600.00000 0 21442784.163 3595514.162 -13329767.575 10 0 60632 31500.00000 0 22831107.296 4115189.811 -10597494.957 10 0 60632 32400.00000 0 23926881.797 4409236.447 -7659280.682 10 0 60632 33300.00000 0 24686354.581 4514543.896 -4572251.293 10 0 60632 34200.00000 0 25076251.551 4475926.908 -1396403.764 10 0 60632 35100.00000 0 25075177.229 4343974.687 1806563.971 10 0 60632 36000.00000 0 24674534.568 4172660.998 4974454.012 10 0 60632 36900.00000 0 23878926.704 4016816.919 8045777.217 10 0 60632 37800.00000 0 22706024.243 3929573.831 10960945.891 10 0 60632 38700.00000 0 21185904.071 3959885.264 13663427.167 10 0 60632 39600.00000 0 19359887.818 4150232.564 16100834.813 10 0 60632 40500.00000 0 17278928.830 4534611.363 18225938.673 10 0 60632 41400.00000 0 15001615.111 5136883.796 19997572.803 10 0 60632 42300.00000 0 12591871.408 5969565.893 21381425.478 10 0 60632 43200.00000 0 10116455.723 7033101.333 22350696.694 10 0 60632 44100.00000 0 7642353.677 8315652.400 22886611.316 10 0 60632 45000.00000 0 5234178.119 9793417.546 22978778.724 10 0 60632 45900.00000 0 2951680.844 11431463.156 22625392.547 10 0 60632 46800.00000 0 847478.488 13185035.869 21833266.907 10 0 60632 47700.00000 0 -1034914.166 15001301.921 20617708.365 10 0 60632 48600.00000 0 -2662662.964 16821442.228 19002225.693 10 0 60632 49500.00000 0 -4014740.614 18583017.068 17018082.340 10 0 60632 50400.00000 0 -5082554.357 20222502.710 14703699.390 10 0 60632 51300.00000 0 -5870049.598 21677894.840 12103919.560 10 0 60632 52200.00000 0 -6393285.751 22891270.463 9269145.503 10 0 60632 53100.00000 0 -6679502.507 23811201.069 6254368.280 10 0 60632 54000.00000 0 -6765716.131 24394915.724 3118104.231 10 0 60632 54900.00000 0 -6696905.273 24610122.718 -78739.489 10 0 60632 55800.00000 0 -6523863.212 24436412.395 -3274048.665 10 0 60632 56700.00000 0 -6300807.790 23866181.218 -6405711.827 10 0 60632 57600.00000 0 -6082850.766 22905037.101 -9412832.096 10 0 60632 58500.00000 0 -5923434.435 21571667.932 -12236916.839 10 0 60632 59400.00000 0 -5871844.979 19897177.848 -14823021.301 10 0 60632 60300.00000 0 -5970908.755 17923918.351 -17120823.296 10 0 60632 61200.00000 0 -6254970.099 15703862.712 -19085607.461 10 0 60632 62100.00000 0 -6748237.170 13296591.382 -20679139.508 10 0 60632 63000.00000 0 -7463566.814 10766972.463 -21870413.240 10 0 60632 63900.00000 0 -8401740.702 8182634.056 -22636255.669 10 0 60632 64800.00000 0 -9551264.194 5611333.931 -22961778.556 10 0 60632 65700.00000 0 -10888697.257 3118336.024 -22840667.703 10 0 60632 66600.00000 0 -12379504.231 763902.939 -22275304.529 10 0 60632 67500.00000 0 -13979387.355 -1398991.518 -21276717.753 10 0 60632 68400.00000 0 -15636048.517 -3326635.075 -19864366.223 10 0 60632 69300.00000 0 -17291305.594 -4986153.583 -18065757.224 10 0 60632 70200.00000 0 -18883474.727 -6356626.790 -15915907.767 10 0 60632 71100.00000 0 -20349918.606 -7429698.035 -13456659.383 10 0 60632 72000.00000 0 -21629653.698 -8209653.838 -10735859.909 10 0 60632 72900.00000 0 -22665906.795 -8712971.770 -7806428.364 10 0 60632 73800.00000 0 -23408513.334 -8967357.333 -4725321.408 10 0 60632 74700.00000 0 -23816056.540 -9010312.082 -1552421.883 10 0 60632 75600.00000 0 -23857657.412 -8887295.007 1650628.467 10 0 60632 76500.00000 0 -23514340.315 -8649556.176 4821628.969 10 0 60632 77400.00000 0 -22779916.898 -8351735.361 7899028.885 10 0 60632 78300.00000 0 -21661351.384 -8049328.042 10823121.374 10 0 60632 79200.00000 0 -20178592.100 -7796126.481 13537199.302 10 0 60632 80100.00000 0 -18363876.507 -7641744.314 15988650.508 10 0 60632 81000.00000 0 -16260538.873 -7629329.253 18129971.703 10 0 60632 81900.00000 0 -13921370.363 -7793560.285 19919681.957 10 0 60632 82800.00000 0 -11406599.679 -8159013.606 21323118.823 10 0 60632 83700.00000 0 -8781577.835 -8738965.916 22313102.627 10 0 60632 84600.00000 0 -6114262.582 -9534685.387 22870456.938 10 0 60632 85500.00000 0 -3472606.027 -10535240.293 22984375.904 10 0 60633 0.00000 0 -921952.888 -11717833.695 22652631.998 10 0 60633 900.00000 0 1477445.277 -13048651.614 21881620.157 10 0 60633 1800.00000 0 3672694.639 -14484188.563 20686237.934 10 0 60633 2700.00000 0 5620214.284 -15972998.226 19089603.022 10 0 60633 3600.00000 0 7287298.476 -17457795.708 17122613.242 10 0 60633 4500.00000 0 8653223.337 -18877825.072 14823356.564 10 0 60633 5400.00000 0 9709852.394 -20171393.868 12236381.564 10 0 60633 6300.00000 0 10461716.335 -21278469.056 9411841.477 10 0 60633 7200.00000 0 10925564.123 -22143225.694 6404527.610 10 0 60633 8100.00000 0 11129404.687 -22716441.266 3272810.191 10 0 60633 9000.00000 0 11111079.878 -22957634.526 77506.887 10 0 60633 9900.00000 0 10916429.163 -22836858.059 -3119299.092 10 0 60633 10800.00000 0 10597123.970 -22336068.074 -6255468.081 10 0 60633 11700.00000 0 10208263.733 -21450012.521 -9270016.287 10 0 60633 12600.00000 0 9805835.947 -20186598.880 -12104307.092 10 0 60633 13500.00000 0 9444148.472 -18566724.919 -14703197.489 10 0 60633 14400.00000 0 9173343.557 -16623578.386 -17016116.658 10 0 60633 15300.00000 0 9037099.631 -14401434.111 -18998055.095 10 0 60633 16200.00000 0 9070618.912 -11953998.175 -20610444.643 10 0 60633 17100.00000 0 9298986.691 -9342367.862 -21821912.053 10 0 60633 18000.00000 0 9735972.331 -6632692.307 -22608891.288 10 0 60633 18900.00000 0 10383323.244 -3893631.135 -22956082.759 10 0 60633 19800.00000 0 11230582.182 -1193716.789 -22856750.641 10 0 60633 20700.00000 0 12255436.031 1401269.832 -22312852.683 10 0 60633 21600.00000 0 13424581.819 3830801.548 -21335000.140 10 0 60633 22500.00000 0 14695073.772 6041881.235 -19942248.733 10 0 60633 23400.00000 0 16016094.939 7990998.201 -18161724.791 10 0 60633 24300.00000 0 17331078.928 9645683.976 -16028093.949 10 0 60633 25200.00000 0 18580092.465 10985603.776 -13582882.755 10 0 60633 26100.00000 0 19702378.394 12003139.365 -10873666.580 10 0 60633 27000.00000 0 20638951.882 12703440.480 -7953139.788 10 0 60633 27900.00000 0 21335140.299 13103944.361 -4878086.551 10 0 60633 28800.00000 0 21742959.556 13233385.292 -1708272.746 10 0 60633 29700.00000 0 21823226.640 13130337.538 1494719.067 10 0 60633 30600.00000 0 21547319.230 12841354.656 4668688.496 10 0 60633 31500.00000 0 20898508.219 12418785.023 7752026.214 10 0 60633 32400.00000 0 19872807.100 11918356.883 10684909.142 10 0 60633 33300.00000 0 18479302.474 11396635.634 13410458.589 10 0 60633 34200.00000 0 16739951.796 10908461.142 15875838.964 10 0 60633 35100.00000 0 14688856.732 10504473.337 18033276.094 10 0 60633 36000.00000 0 12371042.237 10228830.299 19840976.045 10 0 60633 36900.00000 0 9840791.951 10117214.656 21263927.363 10 0 60633 37800.00000 0 7159608.611 10195211.825 22274572.124 10 0 60633 38700.00000 0 4393883.477 10477127.923 22853333.690 10 0 60633 39600.00000 0 1612370.547 10965296.821 22988991.718 10 0 60633 40500.00000 0 -1116430.843 11649905.453 22678897.766 10 0 60633 41400.00000 0 -3726877.833 12509345.002 21929027.620 10 0 60633 42300.00000 0 -6158663.690 13511073.847 20753869.263 10 0 60633 43200.00000 0 -8359073.746 14612956.905 19176148.318 10 0 60633 44100.00000 0 -10284925.171 15765026.209 17226395.575 10 0 60633 45000.00000 0 -11904110.927 16911589.877 14942364.108 10 0 60633 45900.00000 0 -13196684.442 17993601.903 12368306.280 10 0 60633 46800.00000 0 -14155440.403 18951193.972 9554123.619 10 0 60633 47700.00000 0 -14785967.832 19726263.263 6554405.222 10 0 60633 48600.00000 0 -15106173.582 20265007.444 3427372.660 10 0 60633 49500.00000 0 -15145296.574 20520299.756 233751.493 10 0 60633 50400.00000 0 -14942454.535 20453803.417 -2964408.726 10 0 60633 51300.00000 0 -14544784.837 20037735.186 -6104942.809 10 0 60633 52200.00000 0 -14005258.359 19256202.501 -9126782.690 10 0 60633 53100.00000 0 -13380259.244 18106056.446 -11971150.349 10 0 60633 54000.00000 0 -12727033.493 16597223.185 -14582706.974 10 0 60633 54900.00000 0 -12101114.956 14752498.548 -16910635.384 10 0 60633 55800.00000 0 -11553838.282 12606813.137 -18909633.980 10 0 60633 56700.00000 0 -11130044.582 10205997.694 -20540802.524 10 0 60633 57600.00000 0 -10866077.399 7605099.544 -21772402.209 10 0 60633 58500.00000 0 -10788154.078 4866319.811 -22580475.150 10 0 60633 59400.00000 0 -10911181.710 2056656.990 -22949311.270 10 0 60633 60300.00000 0 -11238067.829 -754645.318 -22871753.636 10 0 60633 61200.00000 0 -11759555.156 -3498740.539 -22349336.462 10 0 60633 62100.00000 0 -12454587.388 -6109801.525 -21392253.283 10 0 60633 63000.00000 0 -13291190.670 -8527514.549 -20019156.027 10 0 60633 63900.00000 0 -14227833.512 -10699341.593 -18256789.015 10 0 60633 64800.00000 0 -15215207.721 -12582457.468 -16139465.085 10 0 60633 65700.00000 0 -16198355.106 -14145281.926 -13708394.088 10 0 60633 66600.00000 0 -17119050.021 -15368543.901 -11010876.975 10 0 60633 67500.00000 0 -17918336.965 -16245834.751 -8099381.316 10 0 60633 68400.00000 0 -18539115.902 -16783628.805 -5030516.545 10 0 60633 69300.00000 0 -18928665.832 -17000771.981 -1863929.226 10 0 60633 70200.00000 0 -19040999.863 -16927461.602 1338859.685 10 0 60633 71100.00000 0 -18838952.145 -16603761.925 4515652.559 10 0 60633 72000.00000 0 -18295908.459 -16077719.381 7604784.028 10 0 60633 72900.00000 0 -17397107.352 -15403158.171 10546317.353 10 0 60633 73800.00000 0 -16140456.928 -14637250.095 13283204.872 10 0 60633 74700.00000 0 -14536832.757 -13837961.668 15762390.076 10 0 60633 75600.00000 0 -12609844.186 -13061486.352 17935830.296 10 0 60633 76500.00000 0 -10395078.423 -12359769.962 19761420.766 10 0 60633 77400.00000 0 -7938853.473 -11778233.069 21203802.920 10 0 60633 78300.00000 0 -5296531.186 -11353785.616 22235042.151 10 0 60633 79200.00000 0 -2530459.671 -11113216.593 22835162.826 10 0 60633 80100.00000 0 292370.491 -11072025.794 22992530.952 10 0 60633 81000.00000 0 3102860.256 -11233746.306 22704077.710 10 0 60633 81900.00000 0 5832422.650 -11589785.949 21975359.824 10 0 60633 82800.00000 0 8415582.496 -12119794.422 20820455.553 10 0 60633 83700.00000 0 10792448.922 -12792541.128 19261697.982 10 0 60633 84600.00000 0 12910959.216 -13567267.452 17329250.097 10 0 60633 85500.00000 0 14728801.820 -14395457.431 15060528.988 99